Weather History for Bluefield, WV

Change the Weather History Date:

Friday, February 8, 2013

  Actual Average Record
Temperature  
Mean Temperature 38 °F 36 °F  
Max Temperature 46 °F 44 °F 64 °F (2001)
Min Temperature 30 °F 28 °F 4 °F (1972)
Degree Days  
Heating Degree Days 27 29  
Month to date heating degree days 260 236  
Since 1 July heating degree days 2836 2956  
Cooling Degree Days 0 0  
Month to date cooling degree days 0 0  
Year to date cooling degree days 1 0  
Moisture  
Dew Point 31 °F    
Average Humidity 77    
Maximum Humidity 92    
Minimum Humidity 62    
Precipitation  
Precipitation 0.06 in 0.09 in 0.75 in (1974)
Month to date precipitation 0.47 0.76  
Year to date precipitation 6.47 3.66  
Snow  
Snow 0.00 in - - ()
Month to date snowfall 6.0  
Since 1 July snowfall 34.5  
Snow Depth 0.00 in    
Sea Level Pressure  
Sea Level Pressure 29.94 in    
Wind  
Wind Speed 11 mph (WNW)    
Max Wind Speed 26 mph    
Max Gust Speed 37 mph    
Visibility 9 miles    
Events Rain    
T = Trace of Precipitation, MM = Missing Value Source: NWS Daily Summary

Daily Weather History Graph

Daily Weather History Graph

Search for Another Location

Airport:

Trip Planner

Search our weather history database for the weather conditions in past years. The results will help you decide how hot, cold, wet, or windy it might be!

Date:

Astronomy

Feb. 08, 2013 Rise Set
Actual Time 7:21 AM EST 5:57 PM EST
Civil Twilight 6:54 AM EST 6:24 PM EST
Nautical Twilight 6:23 AM EST 6:55 PM EST
Astronomical Twilight 5:52 AM EST 7:25 PM EST
Moon 5:47 AM EST (2/8) 4:29 PM EST (2/8)
Length of Visible Light 11h 30m
Length of Day
10h 36m
Waning Crescent, 3% of the Moon is Illuminated
Feb 8
Waning Crescent
Feb 10
New
Feb 17
First Quarter
Feb 25
Full
Mar 4
Last Quarter

Hourly Weather History & Observations

Time (EST) Temp. Windchill Dew Point Humidity Pressure Visibility Wind Dir Wind Speed Gust Speed Precip Events Conditions
12:52 AM 36.0 °F 29.0 °F 30.9 °F 82% 29.98 in 10.0 mi SE 9.2 mph 18.4 mph N/A   Overcast
1:52 AM 36.0 °F 27.1 °F 30.9 °F 82% 29.96 in 10.0 mi SE 13.8 mph 20.7 mph N/A   Overcast
2:52 AM 35.1 °F 27.9 °F 30.9 °F 85% 29.93 in 10.0 mi SE 9.2 mph 17.3 mph N/A   Overcast
3:04 AM 35.6 °F 28.0 °F 30.2 °F 81% 29.91 in 10.0 mi SE 10.4 mph 16.1 mph N/A   Overcast
3:40 AM 35.6 °F 28.6 °F 30.2 °F 81% 29.90 in 10.0 mi SE 9.2 mph 16.1 mph N/A   Overcast
3:52 AM 36.0 °F 31.1 °F 30.9 °F 82% 29.91 in 10.0 mi SE 5.8 mph - N/A   Overcast
4:10 AM 35.6 °F 28.0 °F 30.2 °F 81% 29.90 in 10.0 mi SE 10.4 mph - N/A   Overcast
4:27 AM 35.6 °F 29.9 °F 32.0 °F 87% 29.89 in 10.0 mi SE 6.9 mph - N/A   Overcast
4:41 AM 37.4 °F - 32.0 °F 81% 29.89 in 10.0 mi Calm Calm - N/A   Overcast
4:52 AM 37.0 °F - 32.0 °F 82% 29.90 in 10.0 mi Calm Calm - N/A   Overcast
5:52 AM 36.0 °F 32.1 °F 32.0 °F 86% 29.90 in 7.0 mi Variable 4.6 mph - 0.01 in Rain Light Rain
6:52 AM 37.0 °F 31.6 °F 33.1 °F 86% 29.90 in 9.0 mi SE 6.9 mph - 0.01 in   Overcast
7:05 AM 37.4 °F 34.9 °F 33.8 °F 87% 29.87 in 10.0 mi East 3.5 mph - 0.00 in   Overcast
7:52 AM 37.0 °F 34.5 °F 33.1 °F 86% 29.89 in 10.0 mi East 3.5 mph - 0.00 in   Overcast
8:52 AM 37.0 °F - 34.0 °F 89% 29.88 in 10.0 mi Calm Calm - N/A   Overcast
9:07 AM 37.4 °F 34.9 °F 33.8 °F 87% 29.87 in 1.8 mi NNW 3.5 mph - 0.01 in Rain Light Rain
9:12 AM 37.4 °F 34.9 °F 33.8 °F 87% 29.87 in 0.8 mi North 3.5 mph - 0.01 in Rain Light Rain
9:23 AM 37.4 °F - 33.8 °F 87% 29.87 in 1.2 mi Calm Calm - 0.02 in Rain Light Rain
9:27 AM 37.4 °F - 33.8 °F 87% 29.87 in 3.0 mi Calm Calm - 0.02 in Rain Light Rain
9:36 AM 37.4 °F - 33.8 °F 87% 29.87 in 6.0 mi Calm Calm - 0.02 in   Overcast
9:52 AM 37.9 °F - 35.1 °F 89% 29.89 in 5.0 mi Calm Calm - 0.02 in   Overcast
10:02 AM 37.4 °F - 35.6 °F 93% 29.87 in 5.0 mi Calm Calm - 0.00 in Rain Light Rain
10:41 AM 39.2 °F 35.9 °F 35.6 °F 87% 29.87 in 6.0 mi WSW 4.6 mph - 0.01 in Rain Light Rain
10:52 AM 39.9 °F 35.8 °F 36.0 °F 86% 29.89 in 6.0 mi West 5.8 mph - 0.01 in Rain Light Rain
11:04 AM 39.2 °F 33.6 °F 37.4 °F 93% 29.87 in 3.0 mi West 8.1 mph - 0.00 in Rain Light Rain
11:37 AM 42.8 °F 36.2 °F 37.4 °F 81% 29.88 in 7.0 mi WNW 12.7 mph 25.3 mph 0.01 in Rain Light Rain
11:52 AM 43.0 °F 35.7 °F 39.0 °F 86% 29.88 in 8.0 mi WNW 15.0 mph 24.2 mph 0.01 in Rain Light Rain
12:34 PM 44.6 °F 38.8 °F 37.4 °F 76% 29.87 in 10.0 mi WNW 11.5 mph 29.9 mph 0.00 in   Overcast
12:52 PM 44.1 °F 36.8 °F 37.0 °F 76% 29.87 in 10.0 mi WNW 16.1 mph 32.2 mph 0.00 in   Overcast
1:05 PM 42.8 °F 36.2 °F 35.6 °F 76% 29.86 in 10.0 mi NW 12.7 mph 27.6 mph N/A   Overcast
1:12 PM 42.8 °F 34.0 °F 35.6 °F 76% 29.86 in 10.0 mi NW 20.7 mph 35.7 mph N/A   Overcast
1:39 PM 44.6 °F 36.4 °F 35.6 °F 71% 29.87 in 10.0 mi WNW 20.7 mph 29.9 mph N/A   Scattered Clouds
1:52 PM 45.0 °F 37.9 °F 32.0 °F 60% 29.88 in 10.0 mi WNW 16.1 mph 35.7 mph N/A   Mostly Cloudy
2:08 PM 44.6 °F 37.4 °F 32.0 °F 61% 29.88 in 10.0 mi WNW 16.1 mph 26.5 mph N/A   Overcast
2:52 PM 39.9 °F 30.8 °F 30.0 °F 68% 29.92 in 10.0 mi NW 18.4 mph 34.5 mph N/A   Overcast
3:52 PM 37.0 °F 27.7 °F 26.1 °F 65% 29.97 in 10.0 mi NW 16.1 mph 28.8 mph N/A   Overcast
4:13 PM 35.6 °F 25.9 °F 26.6 °F 70% 29.95 in 10.0 mi WNW 16.1 mph 25.3 mph N/A   Overcast
4:52 PM 34.0 °F 23.8 °F 26.1 °F 73% 30.00 in 10.0 mi NW 16.1 mph 24.2 mph N/A   Overcast
5:03 PM 33.8 °F 25.3 °F 26.6 °F 75% 29.97 in 10.0 mi NW 11.5 mph 28.8 mph N/A   Overcast
5:21 PM 33.8 °F 23.9 °F 26.6 °F 75% 29.98 in 10.0 mi NW 15.0 mph 24.2 mph N/A   Overcast
5:52 PM 33.1 °F 22.2 °F 26.1 °F 75% 30.03 in 10.0 mi WNW 17.3 mph 27.6 mph 0.00 in   Overcast
6:26 PM 33.8 °F 23.2 °F 24.8 °F 70% 30.00 in 10.0 mi NW 17.3 mph 27.6 mph N/A   Overcast
6:35 PM 33.8 °F 22.2 °F 26.6 °F 75% 30.01 in 10.0 mi WNW 20.7 mph 31.1 mph N/A   Overcast
6:52 PM 33.1 °F 22.2 °F 25.0 °F 72% 30.06 in 10.0 mi NW 17.3 mph 27.6 mph N/A   Overcast
7:05 PM 33.8 °F 23.5 °F 24.8 °F 70% 30.03 in 10.0 mi WNW 16.1 mph 27.6 mph N/A   Overcast
7:45 PM 32.0 °F 20.8 °F 24.8 °F 75% 30.04 in 10.0 mi WNW 17.3 mph 26.5 mph N/A   Overcast
7:52 PM 32.0 °F 21.6 °F 26.1 °F 79% 30.08 in 10.0 mi WNW 15.0 mph 25.3 mph N/A   Overcast
8:52 PM 32.0 °F 23.6 °F 25.0 °F 75% 30.12 in 10.0 mi NW 10.4 mph 29.9 mph N/A   Overcast
9:52 PM 30.9 °F 20.7 °F 23.0 °F 72% 30.15 in 10.0 mi WNW 13.8 mph 25.3 mph N/A   Overcast
10:52 PM 30.9 °F 19.8 °F 21.9 °F 69% 30.15 in 10.0 mi WNW 16.1 mph 23.0 mph N/A   Overcast
11:18 PM 30.2 °F 18.9 °F 23.0 °F 75% 30.12 in 10.0 mi NW 16.1 mph 21.9 mph N/A   Overcast
11:52 PM 30.0 °F 19.1 °F 21.9 °F 72% 30.15 in 10.0 mi NW 15.0 mph 23.0 mph N/A   Overcast